Precipitable_Water
0.48 0.48 0.51 0.51 0.52 0.54 0.54 0.56 0.59 0.62 0.67 0.69 0.73 0.74 0.77 0.81 0.84 0.86 0.88 0.89 0.90 0.95 0.99 1.00 1.00 1.02 1.02 1.06 1.12 1.19 1.20 1.19 1.14 1.08 1.06 1.07 0.98 0.94 1.00 0.91 0.81 0.78 0.81 0.81 0.78 0.67 0.59 0.47 0.43 0.64 0.72 0.76 0.86 0.89 0.94 1.05 1.10 1.11 1.11 1.11 1.10 1.09 1.10
0.55 0.53 0.56 0.56 0.53 0.51 0.48 0.53 0.55 0.58 0.60 0.61 0.61 0.62 0.67 0.70 0.71 0.72 0.73 0.75 0.77 0.79 0.85 0.89 0.93 0.98 1.01 1.02 1.02 1.06 1.12 1.17 1.20 1.20 1.13 1.09 1.08 1.05 1.03 0.99 0.95 0.80 0.75 0.81 0.80 0.80 0.66 0.57 0.52 0.51 0.52 0.67 0.71 0.71 0.77 0.91 1.02 1.07 1.10 1.10 1.10 1.07 1.06
0.51 0.53 0.54 0.56 0.55 0.53 0.48 0.48 0.55 0.58 0.59 0.58 0.57 0.56 0.57 0.60 0.61 0.64 0.65 0.66 0.70 0.73 0.76 0.77 0.80 0.83 0.88 0.94 1.00 1.03 1.06 1.06 1.13 1.17 1.17 1.17 1.17 1.16 1.10 1.11 1.04 0.97 0.82 0.73 0.78 0.77 0.74 0.71 0.57 0.55 0.59 0.57 0.55 0.62 0.75 0.82 0.91 0.97 1.03 1.06 1.05 1.06 1.07
0.47 0.49 0.48 0.54 0.56 0.51 0.48 0.47 0.50 0.59 0.62 0.60 0.59 0.56 0.56 0.57 0.56 0.55 0.55 0.58 0.63 0.67 0.69 0.70 0.69 0.73 0.79 0.83 0.88 0.93 0.97 1.00 1.03 1.07 1.11 1.15 1.17 1.17 1.13 1.08 1.07 1.05 0.98 0.85 0.69 0.71 0.75 0.70 0.68 0.66 0.66 0.68 0.64 0.61 0.70 0.80 0.87 0.95 1.00 1.03 1.02 1.04 1.06
0.48 0.49 0.49 0.51 0.52 0.50 0.49 0.48 0.49 0.57 0.57 0.58 0.59 0.57 0.54 0.56 0.58 0.56 0.55 0.55 0.54 0.54 0.55 0.60 0.63 0.66 0.72 0.77 0.78 0.81 0.85 0.90 0.96 1.00 1.03 1.06 1.11 1.15 1.14 1.13 1.09 1.11 1.11 1.06 1.00 0.90 0.72 0.69 0.72 0.70 0.70 0.73 0.70 0.70 0.77 0.87 0.95 0.97 1.00 1.01 1.03 1.02 1.03
0.51 0.53 0.52 0.52 0.53 0.51 0.50 0.49 0.48 0.49 0.52 0.51 0.50 0.49 0.53 0.55 0.57 0.56 0.57 0.55 0.55 0.55 0.53 0.53 0.54 0.59 0.66 0.72 0.73 0.73 0.76 0.80 0.84 0.88 0.90 0.95 1.05 1.11 1.16 1.20 1.15 1.13 1.09 1.13 1.12 1.04 0.98 0.84 0.72 0.69 0.75 0.79 0.68 0.69 0.78 0.84 0.83 0.95 1.01 1.02 1.03 1.01 0.98
0.53 0.56 0.56 0.54 0.53 0.51 0.48 0.48 0.49 0.50 0.49 0.47 0.48 0.50 0.55 0.58 0.59 0.58 0.58 0.60 0.60 0.57 0.55 0.54 0.54 0.55 0.57 0.64 0.70 0.71 0.70 0.75 0.81 0.82 0.83 0.85 0.91 1.00 1.14 1.17 1.17 1.15 1.15 1.17 1.20 1.17 1.07 0.95 0.82 0.72 0.70 0.76 0.77 0.71 0.77 0.81 0.88 0.84 0.91 1.01 1.05 1.02 0.97
0.56 0.57 0.57 0.57 0.53 0.48 0.47 0.48 0.49 0.52 0.52 0.51 0.52 0.55 0.57 0.57 0.56 0.55 0.55 0.55 0.54 0.54 0.54 0.54 0.54 0.55 0.55 0.55 0.61 0.68 0.70 0.74 0.75 0.78 0.79 0.81 0.80 0.84 0.92 1.04 1.13 1.18 1.16 1.17 1.14 1.12 1.11 1.04 0.96 0.88 0.79 0.68 0.68 0.71 0.70 0.79 0.82 0.82 0.82 0.97 1.06 1.01 0.97
0.58 0.59 0.58 0.57 0.54 0.52 0.52 0.51 0.51 0.54 0.56 0.55 0.56 0.57 0.58 0.55 0.53 0.53 0.53 0.52 0.53 0.52 0.53 0.54 0.53 0.53 0.53 0.54 0.56 0.64 0.64 0.68 0.67 0.68 0.73 0.76 0.76 0.78 0.80 0.87 0.95 1.04 1.14 1.16 1.15 1.12 1.11 1.11 1.07 1.02 0.92 0.82 0.70 0.60 0.63 0.63 0.70 0.74 0.89 0.90 1.02 1.05 1.00
0.54 0.57 0.59 0.55 0.54 0.53 0.54 0.53 0.51 0.51 0.56 0.55 0.54 0.56 0.56 0.54 0.52 0.52 0.51 0.51 0.52 0.53 0.54 0.54 0.53 0.52 0.53 0.55 0.60 0.61 0.57 0.58 0.59 0.61 0.67 0.71 0.74 0.76 0.76 0.77 0.80 0.87 0.98 1.09 1.14 1.14 1.12 1.12 1.11 1.08 1.03 0.91 0.84 0.72 0.63 0.58 0.60 0.63 0.74 0.90 0.85 0.96 1.02
0.52 0.53 0.54 0.54 0.56 0.56 0.53 0.53 0.53 0.52 0.52 0.52 0.53 0.54 0.54 0.52 0.51 0.51 0.52 0.52 0.53 0.53 0.52 0.52 0.52 0.52 0.54 0.57 0.60 0.59 0.57 0.57 0.55 0.56 0.60 0.67 0.69 0.72 0.73 0.73 0.75 0.77 0.86 0.94 1.02 1.10 1.13 1.12 1.10 1.09 1.06 1.00 0.97 0.82 0.74 0.66 0.63 0.68 0.70 0.85 0.94 0.93 1.02
0.52 0.54 0.55 0.56 0.56 0.56 0.55 0.55 0.55 0.53 0.54 0.53 0.52 0.52 0.52 0.51 0.51 0.50 0.50 0.51 0.51 0.52 0.52 0.51 0.51 0.51 0.57 0.58 0.59 0.58 0.57 0.56 0.54 0.52 0.57 0.62 0.65 0.69 0.70 0.70 0.74 0.75 0.81 0.86 0.93 1.02 1.08 1.12 1.12 1.10 1.10 1.09 1.01 0.96 0.82 0.77 0.67 0.71 0.79 0.75 0.88 0.99 0.99
0.54 0.54 0.57 0.56 0.54 0.53 0.55 0.55 0.56 0.54 0.53 0.54 0.52 0.52 0.52 0.52 0.52 0.51 0.50 0.51 0.51 0.52 0.52 0.53 0.53 0.55 0.60 0.60 0.59 0.58 0.57 0.56 0.53 0.51 0.54 0.61 0.65 0.67 0.68 0.70 0.73 0.75 0.78 0.81 0.86 0.92 0.99 1.06 1.11 1.11 1.10 1.10 1.09 1.05 0.98 0.84 0.74 0.69 0.81 0.80 0.84 0.92 0.99
0.52 0.54 0.55 0.55 0.54 0.53 0.52 0.52 0.52 0.52 0.52 0.50 0.52 0.52 0.53 0.53 0.53 0.53 0.52 0.51 0.51 0.51 0.52 0.52 0.55 0.60 0.60 0.59 0.59 0.59 0.59 0.56 0.52 0.52 0.54 0.56 0.63 0.66 0.66 0.68 0.72 0.77 0.82 0.80 0.81 0.85 0.91 0.99 1.06 1.10 1.11 1.08 1.07 1.09 1.03 0.93 0.79 0.74 0.80 0.88 0.86 0.87 0.96
0.53 0.52 0.51 0.53 0.52 0.52 0.52 0.52 0.53 0.52 0.51 0.53 0.54 0.53 0.53 0.54 0.54 0.54 0.54 0.54 0.54 0.54 0.52 0.52 0.57 0.61 0.58 0.56 0.55 0.58 0.58 0.56 0.53 0.52 0.54 0.54 0.58 0.64 0.65 0.65 0.68 0.73 0.80 0.81 0.83 0.83 0.88 0.91 0.97 1.03 1.06 1.06 1.06 1.06 1.09 1.01 0.90 0.79 0.74 0.83 0.82 0.87 0.90
0.51 0.51 0.51 0.51 0.50 0.50 0.51 0.52 0.53 0.52 0.52 0.51 0.53 0.53 0.53 0.53 0.54 0.54 0.54 0.54 0.53 0.51 0.50 0.52 0.57 0.60 0.58 0.57 0.56 0.57 0.60 0.59 0.56 0.53 0.52 0.52 0.54 0.58 0.59 0.61 0.64 0.70 0.76 0.77 0.79 0.83 0.88 0.89 0.92 0.94 1.00 1.06 1.06 1.08 1.08 1.09 1.00 0.84 0.78 0.78 0.83 0.80 0.82
0.49 0.50 0.49 0.50 0.49 0.49 0.50 0.50 0.52 0.51 0.50 0.50 0.50 0.51 0.51 0.50 0.50 0.50 0.49 0.49 0.48 0.47 0.48 0.50 0.52 0.57 0.58 0.58 0.57 0.58 0.61 0.62 0.59 0.56 0.54 0.53 0.53 0.54 0.55 0.56 0.59 0.66 0.71 0.72 0.75 0.78 0.84 0.89 0.91 0.91 0.95 1.04 1.07 1.06 1.08 1.11 1.06 0.98 0.85 0.78 0.82 0.79 0.80
0.47 0.47 0.47 0.47 0.47 0.47 0.47 0.47 0.48 0.47 0.47 0.46 0.47 0.49 0.49 0.49 0.48 0.47 0.47 0.47 0.47 0.47 0.48 0.49 0.51 0.53 0.57 0.59 0.58 0.59 0.61 0.62 0.61 0.59 0.57 0.56 0.55 0.54 0.53 0.54 0.57 0.63 0.67 0.68 0.71 0.74 0.78 0.81 0.87 0.90 0.91 0.98 1.06 1.10 1.12 1.10 1.12 1.07 0.96 0.83 0.82 0.84 0.83
0.46 0.46 0.46 0.45 0.45 0.44 0.44 0.45 0.45 0.45 0.45 0.45 0.45 0.47 0.47 0.47 0.47 0.45 0.45 0.46 0.47 0.48 0.49 0.51 0.52 0.53 0.56 0.60 0.59 0.59 0.60 0.62 0.63 0.63 0.61 0.60 0.57 0.55 0.53 0.53 0.56 0.60 0.63 0.66 0.70 0.74 0.76 0.77 0.83 0.87 0.91 0.95 1.01 1.08 1.12 1.13 1.14 1.11 1.03 0.95 0.86 0.84 0.85
0.45 0.45 0.43 0.43 0.42 0.42 0.41 0.42 0.41 0.41 0.43 0.43 0.43 0.43 0.44 0.44 0.44 0.44 0.44 0.46 0.47 0.48 0.50 0.50 0.50 0.51 0.55 0.59 0.61 0.60 0.58 0.59 0.61 0.63 0.64 0.63 0.61 0.58 0.56 0.56 0.56 0.59 0.61 0.65 0.68 0.72 0.75 0.77 0.80 0.84 0.91 0.94 1.00 1.04 1.08 1.10 1.10 1.07 1.03 0.98 0.93 0.90 0.86
0.43 0.42 0.42 0.41 0.41 0.40 0.40 0.40 0.40 0.41 0.41 0.41 0.41 0.42 0.41 0.42 0.42 0.42 0.44 0.47 0.48 0.50 0.50 0.50 0.51 0.52 0.54 0.57 0.58 0.58 0.58 0.58 0.59 0.60 0.61 0.62 0.62 0.59 0.57 0.57 0.58 0.60 0.63 0.66 0.69 0.72 0.77 0.77 0.80 0.80 0.86 0.92 0.96 1.00 1.05 1.07 1.07 1.05 1.02 1.01 0.94 0.90 0.88
0.42 0.41 0.41 0.40 0.39 0.39 0.39 0.39 0.40 0.39 0.40 0.39 0.39 0.39 0.40 0.41 0.40 0.42 0.45 0.47 0.47 0.48 0.49 0.50 0.53 0.54 0.53 0.54 0.57 0.57 0.59 0.59 0.59 0.58 0.57 0.58 0.59 0.60 0.58 0.57 0.59 0.61 0.65 0.69 0.73 0.75 0.78 0.84 0.84 0.79 0.83 0.89 0.91 0.95 1.01 1.06 1.06 1.04 1.03 1.02 0.96 0.94 0.91
0.41 0.40 0.39 0.38 0.39 0.40 0.41 0.41 0.41 0.40 0.39 0.39 0.39 0.39 0.40 0.41 0.42 0.43 0.43 0.44 0.44 0.45 0.47 0.51 0.56 0.56 0.56 0.57 0.59 0.60 0.61 0.61 0.60 0.58 0.56 0.56 0.56 0.59 0.60 0.60 0.60 0.61 0.64 0.67 0.69 0.71 0.73 0.76 0.81 0.83 0.83 0.86 0.88 0.91 0.96 1.01 1.03 1.02 1.01 0.98 0.97 0.94 0.90
0.39 0.38 0.38 0.39 0.40 0.41 0.41 0.41 0.41 0.41 0.40 0.39 0.39 0.40 0.40 0.38 0.40 0.42 0.43 0.42 0.43 0.45 0.48 0.52 0.56 0.57 0.57 0.59 0.60 0.60 0.58 0.57 0.57 0.56 0.56 0.56 0.56 0.57 0.59 0.61 0.62 0.62 0.61 0.61 0.63 0.68 0.71 0.73 0.75 0.78 0.82 0.86 0.89 0.91 0.93 0.96 1.00 1.03 1.00 0.98 0.97 0.96 0.93
0.38 0.38 0.39 0.40 0.41 0.43 0.43 0.41 0.40 0.41 0.41 0.40 0.40 0.41 0.40 0.39 0.38 0.39 0.40 0.41 0.43 0.45 0.47 0.52 0.56 0.56 0.57 0.59 0.60 0.59 0.57 0.55 0.54 0.55 0.55 0.55 0.56 0.56 0.56 0.58 0.60 0.62 0.61 0.62 0.64 0.66 0.69 0.71 0.73 0.76 0.79 0.83 0.86 0.89 0.96 0.99 0.99 1.01 1.03 0.99 0.95 0.93 0.92
0.40 0.39 0.39 0.41 0.43 0.44 0.44 0.44 0.42 0.41 0.41 0.42 0.43 0.40 0.39 0.40 0.40 0.40 0.39 0.38 0.41 0.45 0.47 0.52 0.54 0.54 0.55 0.57 0.59 0.58 0.56 0.54 0.52 0.52 0.53 0.54 0.55 0.55 0.54 0.54 0.56 0.59 0.62 0.64 0.65 0.66 0.68 0.69 0.71 0.73 0.77 0.81 0.84 0.87 0.91 0.97 1.03 1.07 1.10 1.04 0.98 0.94 0.94
0.43 0.41 0.42 0.42 0.43 0.44 0.44 0.44 0.45 0.45 0.45 0.46 0.44 0.42 0.41 0.41 0.41 0.41 0.41 0.41 0.43 0.45 0.45 0.49 0.52 0.52 0.53 0.54 0.54 0.55 0.54 0.53 0.52 0.51 0.52 0.53 0.54 0.54 0.54 0.54 0.55 0.58 0.62 0.64 0.66 0.67 0.69 0.70 0.70 0.71 0.73 0.78 0.82 0.84 0.88 0.93 0.97 1.03 1.11 1.07 1.03 0.97 1.00
0.43 0.42 0.43 0.43 0.44 0.44 0.44 0.45 0.46 0.47 0.47 0.47 0.46 0.44 0.42 0.42 0.42 0.44 0.44 0.45 0.45 0.44 0.45 0.49 0.51 0.51 0.51 0.50 0.50 0.49 0.50 0.51 0.50 0.49 0.49 0.51 0.52 0.53 0.53 0.55 0.57 0.59 0.62 0.63 0.66 0.68 0.68 0.69 0.69 0.70 0.70 0.73 0.79 0.83 0.85 0.88 0.93 0.98 1.04 1.08 1.06 1.04 1.01
0.43 0.42 0.42 0.43 0.43 0.43 0.45 0.46 0.46 0.48 0.49 0.49 0.49 0.48 0.47 0.45 0.45 0.45 0.45 0.46 0.46 0.45 0.47 0.51 0.52 0.51 0.50 0.50 0.48 0.47 0.46 0.46 0.45 0.45 0.45 0.46 0.49 0.51 0.52 0.54 0.55 0.57 0.61 0.63 0.65 0.66 0.68 0.70 0.69 0.68 0.68 0.70 0.76 0.81 0.84 0.90 0.94 0.99 1.02 1.06 1.07 1.06 1.04
0.42 0.41 0.42 0.42 0.42 0.43 0.44 0.45 0.47 0.49 0.48 0.48 0.47 0.47 0.46 0.44 0.45 0.44 0.43 0.44 0.44 0.43 0.45 0.51 0.53 0.54 0.54 0.55 0.54 0.52 0.49 0.47 0.45 0.43 0.42 0.43 0.46 0.48 0.49 0.52 0.56 0.56 0.58 0.60 0.63 0.63 0.66 0.67 0.67 0.68 0.69 0.69 0.72 0.77 0.81 0.87 0.92 0.95 0.99 1.03 1.05 1.07 1.07
0.42 0.42 0.42 0.42 0.42 0.43 0.45 0.46 0.47 0.49 0.47 0.47 0.47 0.48 0.48 0.46 0.45 0.44 0.42 0.43 0.45 0.42 0.43 0.46 0.49 0.52 0.55 0.57 0.56 0.54 0.52 0.48 0.45 0.43 0.43 0.42 0.44 0.46 0.48 0.51 0.54 0.56 0.56 0.58 0.61 0.62 0.64 0.66 0.64 0.65 0.67 0.67 0.67 0.71 0.78 0.85 0.86 0.91 0.96 1.00 1.01 1.03 1.04
0.44 0.43 0.43 0.43 0.44 0.44 0.45 0.46 0.48 0.50 0.49 0.49 0.49 0.50 0.49 0.47 0.45 0.45 0.45 0.45 0.45 0.43 0.42 0.44 0.47 0.50 0.52 0.54 0.54 0.53 0.50 0.47 0.44 0.42 0.41 0.39 0.40 0.43 0.46 0.48 0.51 0.54 0.56 0.57 0.58 0.61 0.62 0.64 0.63 0.65 0.66 0.66 0.65 0.67 0.77 0.85 0.85 0.85 0.88 0.91 0.94 0.96 0.98
0.46 0.45 0.45 0.45 0.46 0.47 0.48 0.49 0.49 0.49 0.49 0.49 0.48 0.48 0.48 0.47 0.45 0.44 0.46 0.46 0.44 0.42 0.40 0.41 0.44 0.48 0.50 0.53 0.53 0.50 0.48 0.43 0.40 0.40 0.40 0.39 0.39 0.39 0.42 0.45 0.48 0.51 0.53 0.54 0.56 0.59 0.61 0.63 0.62 0.63 0.65 0.64 0.65 0.66 0.81 0.84 0.88 0.88 0.86 0.87 0.89 0.91 0.90
0.46 0.47 0.47 0.46 0.47 0.48 0.49 0.49 0.50 0.50 0.49 0.49 0.49 0.49 0.48 0.47 0.46 0.46 0.47 0.47 0.44 0.42 0.41 0.41 0.42 0.46 0.49 0.51 0.51 0.48 0.47 0.46 0.44 0.42 0.40 0.40 0.40 0.40 0.40 0.42 0.44 0.47 0.50 0.51 0.54 0.58 0.60 0.61 0.62 0.62 0.64 0.65 0.69 0.75 0.81 0.81 0.86 0.90 0.88 0.87 0.87 0.88 0.88
0.49 0.48 0.48 0.49 0.48 0.48 0.50 0.51 0.51 0.51 0.50 0.50 0.49 0.48 0.48 0.47 0.46 0.45 0.46 0.46 0.43 0.42 0.43 0.43 0.43 0.47 0.51 0.53 0.54 0.52 0.50 0.49 0.50 0.47 0.43 0.41 0.41 0.41 0.42 0.43 0.43 0.45 0.47 0.50 0.53 0.57 0.60 0.61 0.62 0.62 0.64 0.68 0.72 0.76 0.78 0.84 0.86 0.86 0.85 0.85 0.85 0.84 0.85
0.50 0.50 0.50 0.50 0.50 0.49 0.50 0.51 0.52 0.52 0.51 0.51 0.49 0.47 0.46 0.46 0.45 0.44 0.44 0.44 0.42 0.41 0.42 0.43 0.44 0.46 0.51 0.54 0.54 0.53 0.52 0.51 0.51 0.50 0.47 0.42 0.42 0.42 0.44 0.45 0.45 0.46 0.48 0.50 0.53 0.57 0.60 0.61 0.61 0.62 0.64 0.66 0.69 0.73 0.77 0.80 0.83 0.84 0.83 0.83 0.83 0.81 0.81
0.53 0.52 0.52 0.52 0.52 0.51 0.51 0.52 0.52 0.52 0.52 0.51 0.48 0.45 0.44 0.44 0.43 0.42 0.41 0.40 0.40 0.41 0.42 0.44 0.45 0.46 0.51 0.53 0.51 0.51 0.51 0.50 0.50 0.50 0.49 0.46 0.45 0.45 0.44 0.45 0.46 0.47 0.49 0.52 0.56 0.57 0.60 0.61 0.61 0.62 0.64 0.66 0.68 0.72 0.74 0.77 0.78 0.80 0.81 0.82 0.81 0.81 0.80
Wind_Speed
14 14 14 14 14 14 14 14 14 15 15 15 15 15 15 15 15 16 16 16 16 17 17 18 19 20 21 22 23 23 24 23 23 22 22 22 22 23 22 22 22 22 22 22 22 21 20 20 20 19 18 18 18 19 18 18 18 17 17 17 16 17 17
15 15 15 15 15 15 15 15 15 15 16 16 16 16 16 16 16 16 17 17 17 17 17 17 18 19 20 22 23 24 24 25 24 24 24 24 23 23 23 23 22 22 22 22 22 22 22 21 21 20 20 19 19 20 20 20 19 19 18 18 17 17 17
16 16 16 16 16 16 16 16 16 16 17 17 17 17 17 17 17 17 17 17 17 17 17 17 18 18 19 20 22 23 25 25 26 26 26 26 25 24 23 23 23 23 23 23 23 23 23 22 21 21 21 20 20 21 21 21 21 20 19 19 18 18 17
18 18 18 17 17 18 18 18 18 17 17 18 18 18 18 18 18 18 18 18 18 18 18 18 18 18 19 19 20 22 23 25 26 27 27 28 27 26 25 24 24 24 24 24 24 24 24 23 23 22 22 21 20 21 21 21 21 21 21 20 19 19 18
18 18 18 18 18 19 19 19 19 18 18 19 19 19 19 19 19 19 19 19 19 19 19 19 19 19 19 19 20 21 22 23 25 27 28 28 28 28 27 27 26 25 24 25 25 26 26 25 24 24 23 22 21 21 21 21 22 22 22 21 20 19 19
19 18 18 18 19 20 20 20 20 19 19 20 20 20 20 20 19 19 19 19 19 20 20 20 20 20 20 19 20 20 21 22 23 25 27 28 29 29 29 29 28 27 26 26 25 26 26 26 26 25 24 24 23 22 21 21 22 22 22 22 21 20 20
19 18 18 19 20 21 21 20 20 20 20 21 21 20 20 20 20 20 20 19 19 20 20 20 20 20 20 20 20 20 21 22 23 24 26 28 29 29 30 30 30 30 29 28 26 25 25 26 27 26 25 25 24 23 23 22 22 22 22 23 22 21 21
19 19 19 20 21 21 20 20 21 20 20 21 21 21 21 21 20 20 20 20 20 20 20 20 21 21 21 20 20 20 21 21 22 23 24 26 28 29 30 31 31 32 32 31 30 28 28 28 28 28 27 26 25 25 24 23 23 23 23 23 23 23 22
20 20 20 21 21 21 21 21 21 21 21 21 22 22 22 22 22 22 22 21 22 22 21 21 21 21 21 21 21 21 21 22 22 23 24 25 27 29 30 31 32 32 33 33 34 33 32 31 30 30 29 28 27 26 26 25 24 24 24 24 24 24 23
21 21 21 22 22 22 22 22 22 22 22 22 23 23 23 23 23 23 23 23 23 22 22 22 22 22 22 22 21 21 22 23 23 23 23 24 25 27 29 31 32 33 33 33 34 35 35 34 33 32 32 31 30 28 27 27 26 25 25 25 25 25 24
21 21 21 22 22 22 23 22 22 22 23 23 23 23 24 24 24 24 23 23 23 23 23 23 23 23 23 23 22 22 23 23 24 24 24 24 25 26 28 30 32 33 34 34 34 34 35 36 35 34 34 33 32 31 30 29 28 27 27 26 26 26 26
21 21 22 22 23 23 23 23 23 23 23 23 23 24 24 24 24 24 23 23 24 24 24 24 24 24 24 23 23 23 24 24 24 25 25 24 25 25 26 28 30 32 33 34 34 34 34 35 36 36 36 35 34 33 33 31 30 29 28 27 27 27 27
22 23 23 23 23 23 23 23 23 23 24 24 24 24 24 24 24 24 25 25 25 25 25 25 25 24 24 24 24 24 24 25 25 25 25 25 25 25 25 26 28 30 31 33 34 34 34 35 36 37 38 38 36 35 34 33 32 31 30 28 27 27 28
23 23 23 23 23 23 23 23 24 24 24 24 24 24 24 25 25 25 26 26 26 26 26 26 26 25 25 26 26 26 26 26 26 26 25 25 25 25 25 26 26 28 30 32 33 33 34 35 35 36 38 39 39 37 36 35 34 33 32 30 29 28 28
23 23 23 23 23 23 24 24 24 24 24 24 24 24 24 25 26 26 26 26 27 27 27 27 26 26 26 27 27 27 27 27 27 26 26 26 26 26 26 26 26 27 28 30 32 33 33 34 35 35 36 38 39 40 38 37 35 34 34 33 31 29 29
24 24 24 24 24 24 24 24 24 23 23 23 24 24 25 25 26 27 27 27 28 28 28 28 27 27 27 27 27 27 28 27 27 27 27 27 27 27 27 27 27 27 27 28 30 32 33 34 35 35 36 37 39 41 41 39 37 36 35 35 33 31 30
24 24 24 24 24 24 24 24 24 23 24 24 24 25 26 26 27 28 28 29 29 29 29 29 28 28 28 28 28 28 28 28 28 28 28 28 27 27 28 27 27 27 27 28 29 30 32 33 34 35 36 36 37 40 42 41 39 37 37 36 35 33 32
24 24 24 24 24 24 25 25 25 25 25 26 26 26 27 28 29 29 30 30 30 30 30 30 30 29 29 29 30 29 29 29 29 29 29 29 29 28 28 28 28 28 28 28 28 29 31 33 33 34 35 36 36 38 40 42 41 38 37 38 37 35 34
24 24 24 24 24 25 26 26 26 27 27 27 28 28 29 29 30 31 32 32 31 31 31 31 32 31 31 30 30 31 30 30 30 30 29 29 30 30 29 29 29 28 28 28 28 28 30 32 33 33 34 35 36 36 38 41 42 40 39 39 38 37 35
23 23 24 24 25 26 27 27 28 28 28 29 29 29 30 31 31 32 32 32 32 33 33 33 33 32 32 31 31 31 32 32 31 31 30 30 30 30 30 30 29 29 28 29 28 28 29 31 32 33 33 34 35 36 37 39 41 41 40 40 40 39 38
23 24 24 25 26 27 27 28 29 29 29 29 30 30 31 32 32 32 32 32 33 33 33 33 33 32 32 32 32 32 32 32 32 32 31 31 31 30 30 30 30 29 29 29 29 29 29 30 32 33 33 33 34 35 35 36 38 41 41 41 41 41 40
23 24 25 26 26 27 28 29 30 30 30 30 31 31 32 32 32 32 32 33 33 34 33 33 32 31 31 31 31 32 32 32 32 32 31 31 31 30 30 29 29 29 29 30 29 29 29 29 30 32 33 33 34 35 34 34 35 37 40 41 41 41 41
24 24 25 26 26 27 28 29 30 31 31 31 32 32 33 33 32 32 33 34 34 34 32 31 30 30 30 30 30 30 30 30 30 30 30 30 30 29 29 29 29 29 29 30 30 29 29 29 29 31 32 33 34 35 34 34 34 34 37 40 41 40 40
24 24 25 26 27 28 29 30 30 31 31 32 32 33 33 33 33 33 34 34 34 33 31 29 28 28 27 27 27 26 26 27 27 27 28 28 28 28 28 28 28 28 28 29 29 29 29 28 29 30 31 32 33 34 35 35 34 33 34 37 39 39 40
24 24 24 25 27 28 29 30 31 32 32 32 33 34 34 34 34 34 34 34 34 32 30 28 27 26 26 25 25 24 24 24 25 25 25 26 26 26 27 27 27 27 27 27 28 28 28 28 28 29 30 31 31 32 33 34 34 33 34 35 37 38 39
24 24 25 26 27 28 29 30 31 31 32 33 33 34 34 34 34 34 34 35 34 32 29 27 26 25 25 25 25 24 24 24 24 24 24 25 25 25 25 26 26 26 26 27 27 26 27 27 27 28 29 31 31 31 32 33 33 33 34 35 36 37 37
24 25 26 26 27 28 29 30 31 31 32 33 34 34 34 34 34 34 34 34 34 31 29 27 26 25 25 25 24 24 23 23 24 24 24 24 24 25 25 25 25 25 25 26 25 25 26 26 26 27 28 30 31 31 31 31 31 32 33 34 35 35 35
25 25 26 27 28 28 29 30 31 32 32 33 34 34 34 34 34 35 35 34 33 32 29 28 26 25 25 24 25 24 24 24 24 24 24 24 24 24 24 24 24 25 25 25 25 25 25 25 25 26 28 29 30 31 30 30 30 31 32 33 34 35 35
25 26 27 27 28 29 30 31 32 32 33 33 34 34 34 34 35 36 36 35 33 32 30 28 27 26 26 25 26 25 25 24 24 25 25 25 24 24 24 23 24 24 25 25 25 24 24 24 25 25 27 29 30 30 30 29 29 29 29 30 32 34 34
26 27 27 28 28 29 30 31 32 32 33 34 35 35 35 35 35 36 36 35 33 32 31 29 27 27 27 27 27 27 26 26 26 25 25 25 25 24 23 23 23 23 24 24 24 24 24 24 24 24 25 27 29 30 29 28 29 29 28 28 30 32 32
26 27 28 29 29 30 31 32 32 33 33 34 35 36 36 36 36 36 37 35 33 32 31 30 28 28 28 28 28 28 28 28 27 27 26 26 25 24 23 23 23 23 23 24 24 24 24 23 23 24 25 26 27 29 29 29 29 30 30 29 28 30 32
27 28 29 30 31 31 32 33 33 34 34 35 36 36 37 37 37 37 37 35 33 32 32 31 30 29 29 28 28 28 29 29 28 28 27 27 26 25 24 23 23 23 23 23 23 23 23 23 23 24 24 25 25 27 29 30 30 30 31 32 30 29 31
29 30 31 32 32 33 33 34 34 35 35 36 37 37 38 38 38 38 37 35 34 33 33 33 32 31 30 29 29 29 29 29 28 28 28 27 26 25 25 24 23 23 23 23 23 23 23 22 23 23 24 24 25 25 27 29 31 30 30 32 32 32 32
30 31 32 33 33 34 34 35 35 36 37 37 38 38 39 39 38 38 37 35 34 34 34 34 33 32 30 29 29 28 28 28 28 28 27 26 25 25 25 24 23 23 23 23 23 23 22 22 22 23 23 24 24 25 26 27 30 30 30 30 32 33 34
32 33 33 34 34 35 35 36 36 37 38 38 39 39 40 40 39 38 37 35 34 34 34 34 34 32 30 30 30 29 28 28 27 27 26 26 25 24 24 24 24 23 23 22 22 22 22 22 22 22 23 23 23 24 25 26 27 28 28 29 30 32 34
33 34 35 36 36 36 36 37 37 38 39 39 40 40 40 40 39 38 37 35 34 34 34 34 34 32 32 32 31 30 29 28 27 26 25 25 24 24 24 24 24 24 23 22 22 22 21 21 21 21 22 22 23 23 24 26 26 25 26 26 27 29 32
34 35 36 36 36 37 37 37 38 39 40 40 41 41 40 39 39 38 37 35 35 35 35 34 34 33 33 33 31 30 28 28 27 26 25 24 24 23 23 23 24 24 23 21 21 21 21 20 20 20 21 21 22 22 23 24 25 25 25 25 25 26 28
Wind_Direction
348 344 341 340 338 336 335 334 333 333 332 331 329 327 326 324 322 320 318 316 313 309 304 297 290 284 279 275 272 270 268 267 266 265 265 265 263 261 261 261 260 258 256 256 255 253 253 255 254 252 251 252 251 250 250 250 250 250 251 251 250 250 250
344 342 339 338 337 336 334 333 331 330 330 330 329 327 325 323 321 320 319 317 315 314 311 307 301 294 286 279 274 271 269 267 266 264 263 264 263 262 262 262 262 260 257 255 255 253 251 251 253 252 253 253 252 250 250 250 251 250 251 251 250 250 250
341 339 338 336 335 335 334 332 330 328 327 326 325 325 324 322 320 318 317 316 315 314 313 311 308 303 297 289 281 275 271 268 266 265 263 262 262 262 263 262 262 262 259 255 253 252 251 250 251 252 253 253 253 252 251 250 250 249 249 249 250 250 249
339 337 336 334 332 332 332 330 329 327 325 323 322 321 321 320 319 318 317 315 314 313 312 311 309 306 303 298 292 284 277 272 268 266 264 262 261 261 261 260 260 259 259 257 254 252 251 250 251 252 253 253 253 253 251 250 249 248 249 248 248 249 249
336 335 334 331 329 329 328 326 325 324 323 323 321 318 317 317 317 316 316 315 314 313 312 310 309 307 304 301 299 293 286 279 273 269 266 264 262 260 259 258 257 256 257 257 256 254 251 250 250 251 252 254 253 253 251 249 247 247 247 247 247 247 248
334 333 331 329 327 325 324 322 322 321 321 321 320 318 315 315 314 313 313 313 312 313 312 311 310 308 305 302 301 299 294 287 280 274 269 266 264 261 259 258 257 255 255 256 256 256 253 250 249 250 252 253 252 252 251 248 247 246 246 245 245 245 247
333 331 328 327 326 324 322 321 320 318 319 320 320 318 315 314 312 311 311 310 310 312 312 312 310 308 307 303 301 300 298 294 288 281 275 269 266 263 261 259 257 255 255 254 254 254 253 251 250 250 252 253 252 251 250 248 246 246 245 244 244 245 246
330 329 327 325 325 324 322 321 320 318 317 318 318 316 316 314 311 310 310 308 309 310 310 310 309 308 308 305 303 301 299 298 294 288 282 275 269 266 263 261 259 257 255 254 253 254 254 253 251 250 251 252 252 252 250 248 246 245 244 244 243 244 245
329 327 326 325 325 324 322 320 319 318 316 316 316 315 315 314 311 309 307 306 306 306 307 307 306 306 306 306 304 302 300 299 297 294 288 282 275 270 265 263 261 259 257 255 254 254 254 253 252 250 250 250 251 252 251 249 247 245 244 243 243 243 243
330 327 325 324 324 324 322 320 319 317 316 315 314 314 314 314 312 309 307 306 305 304 303 303 303 302 303 303 303 302 301 299 298 296 292 287 281 275 270 265 262 260 259 257 256 254 253 253 252 250 249 249 249 250 250 250 248 246 244 243 242 242 241
332 329 325 324 324 323 322 320 319 318 316 315 314 313 313 313 313 311 308 306 305 304 302 301 301 300 300 300 301 301 301 300 298 296 293 290 286 281 276 270 265 263 260 259 257 255 253 252 251 250 249 248 248 248 249 249 249 247 245 243 241 241 241
332 330 328 326 324 323 321 320 319 318 317 317 315 314 313 313 312 310 308 307 305 304 303 302 301 300 298 298 299 299 299 299 298 296 293 291 289 286 281 276 270 266 263 260 258 256 254 252 250 249 248 248 247 248 248 248 248 248 246 244 242 241 241
333 331 330 328 327 325 323 321 320 319 318 317 316 315 314 313 312 310 309 307 306 305 304 303 301 298 297 298 298 298 298 298 297 296 293 291 290 288 285 281 276 270 266 262 259 257 255 253 251 249 248 247 246 247 247 247 247 247 246 245 243 240 239
334 334 333 332 331 329 327 325 323 322 320 319 318 317 316 315 313 312 310 309 308 306 304 303 301 298 297 298 297 296 296 296 295 294 292 290 289 288 287 285 281 276 270 265 260 257 255 254 253 250 248 247 246 245 246 246 246 246 245 245 243 240 238
338 338 337 336 335 333 331 329 327 326 324 323 322 320 319 317 316 315 314 312 310 308 305 303 301 299 298 298 297 295 295 294 293 292 292 290 288 287 286 285 283 280 276 269 263 259 256 255 253 251 249 248 246 244 243 244 244 244 244 244 242 239 237
341 341 341 339 337 336 335 333 332 330 328 326 325 323 321 320 319 318 316 314 312 310 307 305 302 300 299 299 298 296 294 293 292 292 291 290 288 287 285 285 284 282 279 274 267 260 257 255 254 252 250 248 246 243 241 242 243 243 242 243 241 238 235
343 343 342 340 339 338 337 336 335 333 331 329 326 324 322 321 319 318 317 315 313 311 309 307 304 302 300 300 298 296 294 292 291 291 290 289 287 286 285 284 283 283 281 277 272 263 258 256 254 252 251 248 246 244 241 240 242 242 241 242 241 239 235
344 344 342 341 340 340 339 338 336 334 332 330 328 325 324 322 320 318 317 315 313 311 310 308 306 304 301 299 298 296 294 292 291 290 289 288 287 285 284 283 282 282 281 279 275 268 261 257 255 253 251 249 247 245 242 239 240 241 241 241 240 238 236
344 343 342 342 341 340 340 338 337 335 333 331 329 327 326 324 322 320 317 315 313 312 310 308 307 305 301 298 296 295 294 292 291 289 288 288 287 286 284 283 282 281 281 279 277 272 265 259 257 254 252 249 248 245 243 240 238 239 240 240 239 237 235
344 343 343 342 342 341 340 339 338 337 335 333 332 330 328 326 324 322 319 317 315 313 311 309 307 305 301 298 295 293 292 291 290 289 288 287 287 287 285 283 282 281 280 279 277 274 268 261 257 255 253 250 248 246 244 241 239 238 239 239 239 237 234
344 344 343 343 342 342 341 340 339 338 336 335 334 332 330 328 326 324 322 320 319 317 314 311 308 305 302 298 295 293 291 290 289 289 288 287 286 286 285 283 281 280 279 278 277 275 271 263 257 255 254 251 248 246 244 242 240 238 237 237 239 236 233
345 344 343 342 342 341 341 340 340 339 338 338 337 335 333 330 328 327 326 325 323 320 317 313 310 307 304 300 297 295 293 292 291 289 289 288 287 286 285 283 281 279 278 277 277 275 272 267 259 255 253 251 248 245 244 243 242 239 236 235 237 236 233
344 344 343 342 341 341 340 340 340 340 339 339 339 338 336 334 332 331 329 329 327 325 321 318 315 313 310 306 302 299 296 295 293 292 291 290 288 287 286 284 281 280 278 277 276 275 272 268 262 255 252 251 248 245 243 243 243 241 237 234 234 233 231
343 343 342 342 341 341 340 340 340 340 339 339 338 338 338 337 335 333 332 332 331 329 326 324 322 320 317 313 309 305 302 299 297 295 293 292 290 288 286 284 281 280 279 276 275 274 272 269 264 258 253 250 248 245 242 242 242 241 238 232 230 229 229
342 342 341 341 341 340 340 341 340 340 339 338 338 338 338 337 337 336 335 334 333 331 330 328 326 324 322 320 317 313 310 306 303 299 296 294 292 290 287 284 281 279 278 277 275 273 271 268 264 259 253 250 249 246 243 241 241 241 238 232 229 229 229
340 339 339 339 339 339 339 340 340 339 339 338 338 337 337 337 337 337 337 337 335 332 330 329 327 326 325 324 322 319 316 313 310 306 302 298 295 292 289 286 283 279 277 277 276 273 271 269 264 259 253 250 249 248 246 244 243 242 238 233 229 228 228
338 337 337 336 337 337 338 338 339 339 339 339 338 338 338 338 338 338 337 337 335 332 329 326 325 325 325 325 324 322 320 318 315 312 308 304 300 296 293 289 285 282 278 277 275 273 271 269 265 260 254 249 248 248 248 247 245 242 237 232 229 228 226
336 336 335 334 335 336 336 337 338 339 339 339 339 338 337 337 338 338 338 336 335 332 329 324 322 321 321 321 321 321 320 319 318 316 313 310 305 301 297 293 289 285 280 277 276 274 272 268 265 261 255 250 247 247 247 246 243 240 235 232 230 229 227
335 334 333 333 333 334 335 336 337 338 338 339 339 338 337 336 336 337 337 336 334 332 329 324 320 318 317 317 317 317 318 318 318 317 315 314 310 305 300 297 293 289 284 279 277 276 273 269 265 262 257 252 248 246 246 244 241 237 234 232 230 228 227
333 333 332 332 332 333 334 335 336 337 337 337 337 337 336 335 335 335 335 335 334 332 331 327 321 317 315 314 314 313 314 314 314 314 314 314 313 310 304 299 295 292 287 283 279 276 273 270 265 262 259 255 249 246 244 242 239 236 233 231 229 227 225
330 330 330 330 330 331 332 334 335 335 335 335 335 336 335 335 334 334 334 334 333 332 332 330 325 320 316 314 312 311 311 311 311 311 311 311 312 312 308 302 297 293 289 286 282 278 273 269 265 262 260 257 251 246 243 240 238 237 234 231 230 228 226
328 328 329 328 329 329 330 331 332 333 333 333 334 334 334 334 333 333 333 333 332 331 331 330 327 323 318 315 312 311 310 309 309 308 308 308 308 309 309 305 299 294 291 288 284 280 274 269 265 262 260 258 253 248 243 239 237 237 235 232 232 230 226
326 326 327 327 327 327 328 329 330 331 331 332 332 332 332 333 332 332 332 331 331 330 329 328 327 324 320 317 314 311 310 309 307 307 307 306 305 306 308 307 302 296 292 289 286 281 275 270 266 262 259 257 253 249 245 240 237 237 236 233 232 231 230
324 325 326 326 326 326 326 327 328 329 329 330 330 330 330 331 331 331 331 330 329 329 328 328 327 325 322 320 317 313 311 309 308 306 305 304 304 304 306 307 305 299 293 289 285 280 276 272 268 262 258 256 253 250 246 241 237 237 237 235 233 233 234
324 324 325 325 324 324 325 326 326 327 328 328 328 328 328 329 329 330 330 329 328 328 328 328 328 327 324 321 318 314 311 310 309 307 305 303 302 303 305 306 306 303 296 289 284 279 276 273 269 263 258 255 253 249 244 239 236 235 236 236 235 233 234
324 324 324 324 323 323 324 325 325 326 326 326 326 326 326 326 327 328 328 328 328 327 328 328 328 327 325 323 319 314 311 309 308 306 304 303 302 302 304 305 306 305 299 291 283 279 276 274 269 264 259 256 253 249 242 237 235 234 235 236 235 233 232
324 324 324 323 323 323 323 324 324 325 326 325 325 325 325 325 326 327 327 328 327 327 327 327 327 327 326 324 320 315 312 310 309 306 303 302 301 301 303 305 306 306 302 293 284 279 276 274 269 264 260 256 252 247 241 236 234 233 232 234 235 234 232